P/2016 P5 ( COIAS )

Japanese version
Home page
Updated on March 22, 2025

---------------------------------------------------------------------

* Profile

Discovery Date August 1, 2016
Magnitude 24.1 mag
Discoverer H. Fukuyama (Come On! Impacting ASteroids (COIAS))

* Orbital Elements

                    Epoch = 2013 Mar.  9.0 TT
     T = 2013 Mar.  2.08118 TT        Peri. =  33.49216
     e = 0.0578391                    Node  = 185.52965 2000.0
     q = 4.4265430 AU                 Incl. =   7.03701
       a =  4.6982876 AU   n = 0.09678202   P =  10.18 years

* Magnitudes Graph

        m1 = 13.0 + 5 log d + 10.0 log r

---------------------------------------------------------------------

The orbital elements are printed on CBET 5529.
The magnitudes graphs are made with Comet for Windows.

---------------------------------------------------------------------

Copyright(C) Seiichi Yoshida (comet@aerith.net). All rights reserved.